| time (UTC) | temp F | wind direction | speed knots | gust knots | rain 1hr in | rain 24hr in | rain mn in | humidity % | barometer mb |
| 20260504210136 | 63 | 0 | 0.0 | 0.0 | 0.00 | 0.43 | 0.32 | 95 | 1019.1 |
| 20260504205136 | 32 | 315 | 22.6 | 20.9 | 0.00 | 0.29 | 0.25 | 1 | 1022.4 |
| 20260504204115 | 63 | 0 | 0.0 | 0.0 | 0.00 | 0.43 | 0.32 | 94 | 1018.6 |
| 20260504203116 | 63 | 0 | 0.0 | 0.0 | 0.00 | 0.43 | 0.32 | 94 | 1018.4 |
| 20260504202136 | 32 | 315 | 22.6 | 20.9 | 0.00 | 0.29 | 0.25 | 1 | 1022.4 |
| 20260504201115 | 32 | 315 | 22.6 | 20.9 | 0.00 | 0.29 | 0.25 | 1 | 1022.4 |
| 20260504200116 | 32 | 315 | 22.6 | 20.9 | 0.00 | 0.29 | 0.25 | 1 | 1021.4 |
| 20260504195115 | 63 | 0 | 0.0 | 0.0 | 0.00 | 0.43 | 0.32 | 94 | 1018.2 |
| 20260504194115 | 63 | 292 | 0.0 | 1.7 | 0.00 | 0.43 | 0.32 | 93 | 1018.1 |
| 20260504193136 | 64 | 301 | 0.9 | 1.7 | 0.00 | 0.43 | 0.32 | 93 | 1018.0 |
| 20260504192116 | 32 | 315 | 22.6 | 20.9 | 0.00 | 0.29 | 0.25 | 1 | 1021.4 |
| 20260504191115 | 64 | 301 | 0.9 | 2.6 | 0.00 | 0.43 | 0.32 | 94 | 1018.1 |
| 20260504190116 | 64 | 311 | 0.0 | 0.9 | 0.00 | 0.43 | 0.32 | 94 | 1018.1 |
| 20260504185115 | 64 | 327 | 0.0 | 1.7 | 0.00 | 0.43 | 0.32 | 94 | 1018.0 |
| 20260504184115 | 64 | 338 | 0.9 | 3.5 | 0.00 | 0.43 | 0.32 | 94 | 1017.9 |
| 20260504183115 | 32 | 315 | 22.6 | 20.9 | 0.00 | 0.29 | 0.25 | 1 | 1021.4 |
| 20260504182116 | 63 | 336 | 0.0 | 2.6 | 0.00 | 0.43 | 0.32 | 94 | 1017.9 |
| 20260504181115 | 32 | 315 | 22.6 | 20.9 | 0.00 | 0.29 | 0.25 | 1 | 1021.4 |
| 20260504180136 | 63 | 142 | 0.9 | 1.7 | 0.00 | 0.43 | 0.32 | 94 | 1017.9 |
| 20260504175115 | 32 | 315 | 22.6 | 20.9 | 0.00 | 0.29 | 0.25 | 1 | 1021.4 |
| 20260504174114 | 32 | 315 | 22.6 | 20.9 | 0.00 | 0.29 | 0.25 | 1 | 1021.4 |
| 20260504173115 | 64 | 297 | 0.9 | 2.6 | 0.00 | 0.43 | 0.32 | 93 | 1017.5 |
| 20260504172135 | 64 | 292 | 0.9 | 4.3 | 0.00 | 0.43 | 0.32 | 94 | 1017.6 |
| 20260504172114 | 32 | 315 | 22.6 | 20.9 | 0.00 | 0.29 | 0.25 | 1 | 1021.4 |
| 20260504171115 | 63 | 0 | 0.0 | 0.0 | 0.00 | 0.43 | 0.32 | 93 | 1017.5 |
| 20260504170137 | 63 | 310 | 0.0 | 1.7 | 0.00 | 0.43 | 0.32 | 93 | 1017.2 |
| 20260504160115 | 64 | 327 | 1.7 | 5.2 | 0.27 | 0.43 | 0.32 | 93 | 1017.9 |
| 20260504151115 | 32 | 315 | 22.6 | 20.9 | 0.08 | 0.12 | 0.08 | 1 | 1021.4 |
| 20260504150115 | 64 | 312 | 4.3 | 7.8 | 0.05 | 0.16 | 0.05 | 94 | 1018.1 |
| 20260504141115 | 64 | 173 | 0.0 | 1.7 | 0.00 | 0.11 | 0.00 | 94 | 1017.4 |
| 20260504140137 | 32 | 315 | 22.6 | 20.9 | 0.00 | 0.04 | 0.00 | 1 | 1021.4 |
| 20260504130115 | 64 | 80 | 0.0 | 0.0 | 0.00 | 0.11 | 0.11 | 94 | 1017.5 |
| 20260504120114 | 32 | 315 | 22.6 | 20.9 | 0.00 | 0.04 | 0.04 | 1 | 1021.4 |
| 20260504110115 | 64 | 0 | 0.0 | 0.0 | 0.00 | 0.11 | 0.11 | 93 | 1018.1 |
| 20260504100115 | 32 | 315 | 22.6 | 20.9 | 0.04 | 0.04 | 0.04 | 1 | 1021.4 |
| 20260504090114 | 32 | 315 | 22.6 | 20.9 | 0.00 | 0.00 | 0.00 | 1 | 1021.4 |
| 20260504081134 | 32 | 315 | 22.6 | 20.9 | 0.00 | 0.00 | 0.00 | 1 | 1021.4 |
| 20260504080114 | 65 | 325 | 1.7 | 4.3 | 0.01 | 0.05 | 0.05 | 88 | 1017.4 |
| 20260504070113 | 32 | 315 | 22.6 | 20.9 | 0.00 | 0.00 | 0.00 | 1 | 1020.4 |
| 20260504060114 | 32 | 315 | 22.6 | 20.9 | 0.00 | 0.00 | 0.00 | 1 | 1020.4 |
| 20260504050135 | 32 | 315 | 22.6 | 20.9 | 0.00 | 0.00 | 0.00 | 1 | 1020.4 |
| 20260504045113 | 70 | 253 | 0.0 | 4.3 | 0.00 | 0.01 | 0.01 | 76 | 1016.6 |
| 20260504044113 | 32 | 315 | 22.6 | 20.9 | 0.00 | 0.00 | 0.00 | 1 | 1020.4 |
| 20260504043134 | 32 | 315 | 22.6 | 20.9 | 0.00 | 0.00 | 0.00 | 1 | 1020.4 |
| 20260504042113 | 32 | 315 | 22.6 | 20.9 | 0.00 | 0.00 | 0.00 | 1 | 1020.4 |
| 20260504041113 | 32 | 315 | 22.6 | 20.9 | 0.00 | 0.00 | 0.00 | 1 | 1020.4 |
| 20260504040114 | 32 | 315 | 22.6 | 20.9 | 0.00 | 0.00 | 0.00 | 1 | 1020.4 |
| 20260504035113 | 32 | 315 | 22.6 | 20.9 | 0.00 | 0.00 | 0.00 | 1 | 1020.4 |
| 20260504034113 | 32 | 315 | 22.6 | 20.9 | 0.00 | 0.00 | 0.00 | 1 | 1021.4 |
| 20260504033113 | 69 | 312 | 1.7 | 3.5 | 0.00 | 0.00 | 0.00 | 74 | 1016.9 |
| 20260504032113 | 70 | 291 | 1.7 | 7.0 | 0.00 | 0.00 | 0.00 | 75 | 1017.0 |
| 20260504031113 | 32 | 315 | 22.6 | 20.9 | 0.00 | 0.00 | 0.00 | 1 | 1021.4 |
| 20260504030114 | 32 | 315 | 22.6 | 20.9 | 0.00 | 0.00 | 0.00 | 1 | 1021.4 |
| 20260504025113 | 32 | 315 | 22.6 | 20.9 | 0.00 | 0.00 | 0.00 | 1 | 1021.4 |
| 20260504024113 | 32 | 315 | 22.6 | 20.9 | 0.00 | 0.00 | 0.00 | 1 | 1021.4 |
| 20260504023113 | 74 | 286 | 7.8 | 13.9 | 0.00 | 0.00 | 0.00 | 56 | 1017.6 |
| 20260504022113 | 75 | 281 | 5.2 | 11.3 | 0.00 | 0.00 | 0.00 | 54 | 1017.7 |
| 20260504021113 | 32 | 315 | 22.6 | 20.9 | 0.00 | 0.00 | 0.00 | 1 | 1022.4 |
| 20260504020114 | 76 | 287 | 7.8 | 13.9 | 0.00 | 0.00 | 0.00 | 52 | 1018.1 |
| 20260504015112 | 78 | 270 | 6.1 | 12.2 | 0.00 | 0.00 | 0.00 | 49 | 1018.1 |
| 20260504014134 | 79 | 276 | 5.2 | 10.4 | 0.00 | 0.00 | 0.00 | 48 | 1018.1 |
| 20260504013134 | 78 | 259 | 3.5 | 8.7 | 0.00 | 0.00 | 0.00 | 49 | 1018.2 |
| 20260504012113 | 32 | 315 | 22.6 | 20.9 | 0.00 | 0.00 | 0.00 | 1 | 1022.4 |
| 20260504011134 | 32 | 315 | 22.6 | 20.9 | 0.00 | 0.00 | 0.00 | 1 | 1022.4 |
| 20260504010113 | 32 | 315 | 22.6 | 20.9 | 0.00 | 0.00 | 0.00 | 1 | 1023.4 |
| 20260504005134 | 78 | 317 | 4.3 | 9.6 | 0.00 | 0.00 | 0.00 | 49 | 1018.4 |
| 20260504004113 | 32 | 315 | 22.6 | 20.9 | 0.00 | 0.00 | 0.00 | 1 | 1022.4 |
| 20260504003113 | 32 | 315 | 22.6 | 20.9 | 0.00 | 0.00 | 0.00 | 1 | 1022.4 |
| 20260504002113 | 32 | 315 | 22.6 | 20.9 | 0.00 | 0.00 | 0.00 | 1 | 1022.4 |
| 20260504001112 | 75 | 173 | 1.7 | 4.3 | 0.00 | 0.00 | 0.00 | 62 | 1018.5 |
| 20260504000113 | 74 | 155 | 2.6 | 4.3 | 0.00 | 0.00 | 0.00 | 63 | 1018.5 |
| 20260503235113 | 32 | 315 | 22.6 | 20.9 | 0.00 | 0.00 | 0.00 | 1 | 1022.4 |
| 20260503234112 | 32 | 315 | 22.6 | 20.9 | 0.00 | 0.00 | 0.00 | 1 | 1022.4 |
| 20260503233112 | 32 | 315 | 22.6 | 20.9 | 0.00 | 0.00 | 0.00 | 1 | 1022.4 |
| 20260503232112 | 68 | 66 | 0.0 | 1.7 | 0.00 | 0.00 | 0.00 | 73 | 1018.7 |
| 20260503231134 | 67 | 132 | 0.0 | 0.9 | 0.00 | 0.00 | 0.00 | 74 | 1018.8 |
| 20260503230113 | 66 | 0 | 0.0 | 0.0 | 0.00 | 0.00 | 0.00 | 78 | 1018.8 |
| 20260503225113 | 64 | 0 | 0.0 | 0.0 | 0.00 | 0.00 | 0.00 | 82 | 1018.8 |
| 20260503224112 | 63 | 0 | 0.0 | 0.0 | 0.00 | 0.00 | 0.00 | 83 | 1018.9 |
| 20260503223112 | 32 | 315 | 22.6 | 20.9 | 0.00 | 0.00 | 0.00 | 1 | 1022.4 |
| 20260503222112 | 58 | 0 | 0.0 | 0.0 | 0.00 | 0.00 | 0.00 | 88 | 1018.8 |
| 20260503221113 | 57 | 0 | 0.0 | 0.0 | 0.00 | 0.00 | 0.00 | 89 | 1018.8 |
| 20260503220134 | 57 | 0 | 0.0 | 0.0 | 0.00 | 0.00 | 0.00 | 89 | 1018.8 |
| 20260503215112 | 56 | 0 | 0.0 | 0.0 | 0.00 | 0.00 | 0.00 | 89 | 1018.8 |
| 20260503214112 | 32 | 315 | 22.6 | 20.9 | 0.00 | 0.00 | 0.00 | 1 | 1022.4 |
| 20260503213112 | 56 | 0 | 0.0 | 0.0 | 0.00 | 0.00 | 0.00 | 90 | 1018.6 |
| 20260503212134 | 32 | 315 | 22.6 | 20.9 | 0.00 | 0.00 | 0.00 | 1 | 1021.4 |
| 20260503211113 | 55 | 0 | 0.0 | 0.0 | 0.00 | 0.00 | 0.00 | 90 | 1018.5 |